Powrót do katalogu

ATLAS 5 CENTAUR DEB

LostHEO
NORAD 47248·DEBRIS·🇺🇸 United States

Wystrzelony Oct 17, 2018 z Cape Canaveral Space Force Station

Loading…

Następne Przeloty (najbliższe 24 godziny)

TLE

NieaktualneSource: Space-Track

Epoka: Dec 19, 2022, 07:58 UTC

1 47248U 18079EG  22353.33206142 -.00000180  00000-0  00000+0 0  9995
2 47248  11.0221 105.9497 5142003 211.3777 103.7136  2.09568276 15712

Śledź ATLAS 5 CENTAUR DEB w czasie rzeczywistym z AllMySat

Download on the App Store